Northeast Philadelphia, PA

6:58 AM EST on November 20, 2019 (GMT -0500)
Northeast Philadelphia

Weather History for KPNE - October, 2019

Change the Weather History Date:

Wednesday, October 23, 2019

  Actual Average Record
Temperature  
Mean Temperature 59 °F -  
Max Temperature 68 °F 60 °F 81 °F (2007)
Min Temperature 51 °F 41 °F 30 °F (1997)
Degree Days  
Heating Degree Days 6    
Growing Degree Days 9 (Base 50)    
Moisture  
Dew Point 45 °F    
Average Humidity 62    
Maximum Humidity 87    
Minimum Humidity 32    
Precipitation  
Precipitation 0.00 in - - ()
Sea Level Pressure  
Sea Level Pressure 29.99 in    
Wind  
Wind Speed 8 mph ()    
Max Wind Speed 16 mph    
Max Gust Speed 26 mph    
Visibility 10.0 miles    
Events      
Averages and records for this station are not official NWS values.
T = Trace of Precipitation, MM = Missing Value Source: Averaged Metar Reports

Daily Weather History Graph

Daily Weather History Graph

Search for Another Location

Airport or City:

Astronomy

Oct. 23, 2019 Rise Set
Actual Time 7:18 AM EDT 6:09 PM EDT
Civil Twilight 6:51 AM EDT 6:36 PM EDT
Nautical Twilight 6:19 AM EDT 7:08 PM EDT
Astronomical Twilight 5:48 AM EDT 7:39 PM EDT
Moon 1:34 AM EDT (10/23) 3:58 PM EDT (10/23)
Length of Visible Light 11h 45m
Length of Day
10h 50m
Waning Crescent, 27% of the Moon is Illuminated
Oct 23
Waning Crescent
Oct 27
New
Nov 4
First Quarter
Nov 12
Full
Nov 19
Last Quarter

Hourly Weather History & Observations

Time (EDT) Temp. Dew Point Humidity Pressure Visibility Wind Dir Wind Speed Gust Speed Precip Events Conditions
12:04 AM 64.0 °F 59.0 °F 84% 29.81 in 10.0 mi West 9.2 mph - 0.00 in   Overcast
12:54 AM 63.0 °F 57.9 °F 84% 29.81 in 10.0 mi WNW 9.2 mph - 0.00 in   Overcast
1:54 AM 61.0 °F 57.0 °F 87% 29.82 in 10.0 mi WNW 6.9 mph - N/A   Scattered Clouds
2:54 AM 61.0 °F 55.9 °F 83% 29.82 in 10.0 mi NW 4.6 mph - N/A   Overcast
3:54 AM 59.0 °F 54.0 °F 83% 29.82 in 10.0 mi WNW 5.8 mph - N/A   Clear
4:54 AM 57.0 °F 53.1 °F 87% 29.86 in 10.0 mi WNW 5.8 mph - N/A   Clear
5:54 AM 55.9 °F 52.0 °F 87% 29.88 in 10.0 mi WNW 6.9 mph - N/A   Clear
6:54 AM 55.9 °F 51.1 °F 84% 29.91 in 10.0 mi West 8.1 mph - N/A   Clear
7:54 AM 55.9 °F 50.0 °F 80% 29.94 in 10.0 mi WNW 6.9 mph - N/A   Clear
8:54 AM 57.9 °F 50.0 °F 75% 29.99 in 10.0 mi West 11.5 mph - N/A   Clear
9:54 AM 61.0 °F 48.9 °F 64% 30.01 in 10.0 mi WNW 6.9 mph - N/A   Clear
10:54 AM 63.0 °F 46.0 °F 54% 30.01 in 10.0 mi WNW 13.8 mph 21.9 mph N/A   Clear
11:54 AM 64.0 °F 39.9 °F 41% 30.02 in 10.0 mi WNW 15.0 mph - N/A   Clear
12:54 PM 66.0 °F 39.0 °F 37% 30.02 in 10.0 mi WNW 16.1 mph 26.5 mph N/A   Clear
1:54 PM 66.9 °F 37.9 °F 34% 30.01 in 10.0 mi WNW 15.0 mph 21.9 mph N/A   Clear
2:54 PM 66.9 °F 37.0 °F 33% 30.02 in 10.0 mi WNW 15.0 mph 23.0 mph N/A   Clear
3:54 PM 66.9 °F 36.0 °F 32% 30.03 in 10.0 mi West 15.0 mph 20.7 mph N/A   Clear
4:54 PM 66.0 °F 37.9 °F 36% 30.04 in 10.0 mi West 12.7 mph - N/A   Clear
5:54 PM 63.0 °F 36.0 °F 37% 30.07 in 10.0 mi West 9.2 mph 20.7 mph N/A   Clear
7:54 PM 55.9 °F 37.9 °F 51% 30.14 in 10.0 mi WSW 4.6 mph - N/A   Clear
8:54 PM 54.0 °F 39.0 °F 57% 30.17 in 10.0 mi West 5.8 mph - N/A   Clear
9:54 PM 55.0 °F 39.0 °F 55% 30.19 in 10.0 mi West 4.6 mph - N/A   Clear
10:54 PM 52.0 °F 39.0 °F 61% 30.21 in 10.0 mi West 5.8 mph - N/A   Clear
11:54 PM 51.1 °F 37.0 °F 59% 30.22 in 10.0 mi WNW 4.6 mph - N/A   Clear